Showing default

YAOGAN-39 05B, 58558

Orbit data source: Space-Track

YAOGAN-39 05B, 58558 is a payload satellite owned by PLA GAD (CN) in LEO that was launched on Sun, 10 Dec 2023 UTC via a CHANG ZHENG 2D launch vehicle from the Xichang Space Center, China (XSC). Payload-class satellites include a variety of spacecraft equipped with specific instruments for various scientific and technological missions. These include communications satellites like Starlink; space stations such as the ISS; scientific satellites like the Hubble; Earth observation satellites from companies like Planet Labs, Umbra, and HawkEye 360; GPS; miniature CubeSats for education and research; and military/defense satellites.

Loading next visibility...
Identifier
58558, 2023-194B
Orbit
LEO
Country
Flag of CNCN / PRC
Related business
Manufacturer
SAST
Mission
Operational Defense Sigint
Bus & Motor
Unknown
Mass
~300 kg wet, ~300 kg dry
Launch date (UTC)
2023-12-10 (3 years ago)
Launch vehicle
CHANG ZHENG 2D
Launch site
Xichang Space Center, China (XSC)
Object type
Payload
Rocket body
Debris
Shape & HBR
Box + 2 Pan, 2.5 m
Radar Cross Section
11.063 m², Large (>1 m²)

Expand to show TLE details & history
Last TLE update: 1 day ago

TLE from 1 day ago
0 YAOGAN-39 05B
1 58558U 23194B   26172.38790579  .00004980  00000-0  24288-3 0  9994
2 58558  34.9930  54.9952 0010100 349.2714  10.7782 15.17668195140736
Epoch: 2026-06-21T09:18Z
TLE epoch observation values (Epoch: 2026-06-21T09:18:35.060Z)
Latitude
-0.00003°
Longitude
5.76018°
Altitude
504.964 km
Speed
7.618 km/s
True Right ascension
03h 39m 58s
True Declination
0° 00' 00"
Sunlit
Object was in daylight at epoch
Visualization orbit readout
Latitude
Unknown
Longitude
Unknown
Altitude
Unknown
Speed
Unknown
Apparent Right ascension
Unknown
Apparent Declination
Unknown
Sunlit
N/A
Visualization observer readout
Local Sidereal Time
23:07:34
Azimuth
Unknown
Elevation
Unknown
Doppler factor
Unknown
Orbital elements
Apogee altitude
523.097 km
Perigee altitude
509.17 km
Semi-major axis
6,894.271 km
Eccentricity
0.00101
Inclination
34.993°
RAAN
54.9952°
Arg. of periapsis
349.2714°
True anomaly
10.79987°
Mean anomaly
10.7782°
Eccentric anomaly
10.78903°
Mean motion
3.7915 °/min
Orbital period
94.95 mins
BSTAR
0.00024288
Loading maneuver chart data...
Computing Atmospheric mass density...
Loading historical data...
Loading historical data...
Loading historical data...
Loading historical data...
Loading historical data...
Loading historical data...
Loading historical data...
Other satellites on launch #194 in the year 2023 (2023-12-10 UTC)

Documentation

Showing up to 5 results
|